Flag for U.S.A. Weather past 2 weeks in Huntsville, Alabama, U.S.A.

Now
75 °F

Fog.


Feels Like: 74 °F
Forecast: 72 / 90 °F
Wind: No wind

Location: Huntsville International / Jones Field

Current Time: Sep 3, 2015 at 6:46:06 AM

Latest Report: Sep 3, 2015 at 5:53 AM


Visibility: 6 mi

Pressure: 29.99 "Hg

Humidity: 90%

Dew point: 72 °F

Location of HuntsvilleLocation

Historic Weather in Huntsville — Graph

°F

Huntsville temperature yesterday

Maximum temperature yesterday: 89 °F (at 12:53 PM)
Minimum temperature yesterday: 72 °F (at 1:53 AM)
Average temperature yesterday: 80 °F

Past Weeks' High & Low Weather Summary

 TemperatureHumidityPressure
High89 °F (Aug 23, 3:53 PM)91% (Aug 23, 5:53 AM)30.14 "Hg (Aug 23, 5:53 AM)
Low59 °F (Aug 25, 4:53 AM)40% (Aug 25, 3:53 PM)29.85 "Hg (Aug 19, 2:53 PM)
Average76 °F74%30.03 "Hg
* Reported Aug 19 5:53 AM — Sep 3 5:53 AM, Huntsville, Weather by CustomWeather, © 2015

Note: Actual official high and low records may vary slightly from our data, if they occured in-between our weather recording intervals... More about our weather records

Advertising

Huntsville weather history for previous 24 hours

 ConditionsComfort  
Time TempWeatherWind HumidityBarometerVisibility
5:53 AM
Thu, Sep 3
75 °FFog.No wind90%29.99 "Hg6 mi
4:53 AM75 °FFog.No wind88%29.99 "Hg5 mi
3:53 AM75 °FFog.3 mph90%29.98 "Hg5 mi
2:53 AM75 °FFog.No wind90%29.98 "Hg5 mi
1:53 AM76 °FFog.5 mph88%29.97 "Hg6 mi
12:53 AM76 °FClear.3 mph88%29.99 "Hg7 mi
11:53 PM
Wed, Sep 2
76 °FOvercast.No wind88%30.00 "Hg8 mi
10:53 PM76 °FOvercast.3 mph88%30.00 "Hg10 mi
9:53 PM76 °FPassing clouds.5 mph88%30.01 "Hg7 mi
8:53 PM79 °FPassing clouds.No wind84%30.00 "Hg10 mi
7:53 PM80 °FOvercast.No wind81%29.98 "Hg10 mi
6:53 PM81 °FOvercast.3 mph82%29.99 "Hg10 mi
5:53 PM84 °FOvercast.3 mph72%29.99 "Hg10 mi
4:53 PM85 °FOvercast.3 mph70%30.01 "Hg10 mi
3:53 PM86 °FOvercast.3 mph67%30.01 "Hg10 mi
2:53 PM87 °FOvercast.3 mph65%30.03 "Hg10 mi
1:53 PM88 °FMore clouds than sun.3 mph59%30.04 "Hg10 mi
12:53 PM89 °FMore clouds than sun.No wind55%30.06 "Hg10 mi
11:53 AM88 °FPartly sunny.3 mph57%30.08 "Hg10 mi
10:53 AM87 °FPartly sunny.5 mph59%30.09 "Hg10 mi
9:53 AM84 °FPartly sunny.3 mph65%30.10 "Hg10 mi
8:53 AM79 °FPartly sunny.No wind79%30.10 "Hg10 mi
7:53 AM75 °FBroken clouds.No wind88%30.10 "Hg10 mi
6:53 AM73 °FPartly cloudy.3 mph88%30.09 "Hg10 mi
Weather by CustomWeather, © 2015

See weather overviewHow to use our weather pages